Location: Zagreb
(45.8000°N, 16.0000°E)
Time: 09:05:41
(UTC+01:00)

Transit 2A Rocket - Visible Passes

Search period start: 28 January 2022 00:00
Search period end: 07 February 2022 00:00
Orbit: 585 x 917 km, 66.7° (Epoch: 27 January)

Date Brightness Start Highest point End Pass type
(mag) Time Alt. Az. Time Alt. Az. Time Alt. Az.
28 Jan 6.2 18:53:44 10° SW 18:59:38 49° NW 19:04:35 15° NNE visible
28 Jan 7.6 20:40:10 10° WNW 20:43:45 16° NNW 20:44:29 15° NNW visible
29 Jan 5.6 18:10:42 10° SW 18:16:47 72° NW 18:22:54 10° NNE visible
29 Jan 7.4 19:56:00 10° W 20:00:29 21° NNW 20:03:19 15° N visible
30 Jan 5.4 17:27:59 10° SSW 17:34:03 76° ESE 17:40:10 10° NE visible
30 Jan 7.1 19:12:09 10° W 19:17:18 28° NW 19:22:04 11° NNE visible
30 Jan 7.9 21:00:28 10° NNW 21:01:59 11° NNW 21:01:59 11° NNW visible
31 Jan 6.6 18:28:35 10° WSW 18:34:15 38° NW 18:39:54 10° NNE visible
31 Jan 7.7 20:15:44 10° NW 20:18:38 13° NNW 20:20:41 12° N visible
01 Feb 6.0 17:45:20 10° SW 17:51:20 56° NW 17:57:19 10° NNE visible
01 Feb 7.6 19:31:23 10° WNW 19:35:17 17° NNW 19:39:09 10° N visible
02 Feb 7.3 18:47:18 10° W 18:52:03 23° NW 18:56:44 10° NNE visible
03 Feb 6.9 18:03:34 10° WSW 18:08:56 31° NW 18:14:14 10° NNE visible
03 Feb 7.7 19:51:28 10° NW 19:53:33 12° NNW 19:55:37 10° N visible
04 Feb 7.6 19:06:51 10° WNW 19:10:08 15° NNW 19:13:22 10° N visible
05 Feb 7.5 18:22:36 10° WNW 18:26:50 19° NNW 18:30:59 10° NNE visible
06 Feb 7.1 17:38:39 10° W 17:43:38 25° NW 17:48:32 10° NNE visible
06 Feb 7.8 19:27:34 10° NNW 19:28:29 10° NNW 19:29:25 10° N visible
